This is the latest recevied weather packets stored in our database for station/object KC4KQE. If no packets are shown the sender has not sent any weather packets the latest 1 day(s).
| Time | Temp. | Humidity | Pressure | Rain* | Wind** | Luminosity | Snow |
|---|---|---|---|---|---|---|---|
| 1778049856 | 16.11° C | 41% | 1013.8 hPa | 0 mm | - | 0 W/m² | - |
| 1778049256 | 16.11° C | 39% | 1013.7 hPa | 0 mm | - | 0 W/m² | - |
| 1778048957 | 16.11° C | 40% | 1013.6 hPa | 0 mm | - | 0 W/m² | - |
| 1778048356 | 15.56° C | 42% | 1013.7 hPa | 0 mm | - | 0 W/m² | - |
| 1778047458 | 16.11° C | 44% | 1013.6 hPa | 0 mm | - | 0 W/m² | - |
| 1778047156 | 16.11° C | 41% | 1013.6 hPa | 0 mm | - | 0 W/m² | - |
| 1778046256 | 16.67° C | 40% | 1013.4 hPa | 0 mm | - | 0 W/m² | - |
| 1778045656 | 16.67° C | 38% | 1013.3 hPa | 0 mm | - | 0 W/m² | - |
| 1778045357 | 16.67° C | 38% | 1013.3 hPa | 0 mm | - | 0 W/m² | - |
| 1778045056 | 16.67° C | 38% | 1013.3 hPa | 0 mm | - | 0 W/m² | - |
| 1778044157 | 16.67° C | 38% | 1013.2 hPa | 0 mm | - | 0 W/m² | - |
| 1778043856 | 17.22° C | 37% | 1013.2 hPa | 0 mm | - | 0 W/m² | - |
| 1778043556 | 17.22° C | 37% | 1013.1 hPa | 0 mm | - | 0 W/m² | - |
| 1778043256 | 17.22° C | 36% | 1013 hPa | 0 mm | - | 0 W/m² | - |
| 1778042956 | 17.78° C | 35% | 1013 hPa | 0 mm | - | 0 W/m² | - |
| 1778042657 | 17.78° C | 35% | 1013 hPa | 0 mm | - | 0 W/m² | - |
| 1778042356 | 17.78° C | 34% | 1012.9 hPa | 0 mm | - | 0 W/m² | - |
| 1778042056 | 17.78° C | 34% | 1012.9 hPa | 0 mm | - | 0 W/m² | - |
| 1778041756 | 18.33° C | 34% | 1012.8 hPa | 0 mm | - | 0 W/m² | - |
| 1778041456 | 18.33° C | 33% | 1012.8 hPa | 0 mm | - | 0 W/m² | - |
| 1778040556 | 18.33° C | 34% | 1012.6 hPa | 0 mm | - | 0 W/m² | - |
| 1778040256 | 18.89° C | 32% | 1012.5 hPa | 0 mm | - | 0 W/m² | - |
| 1778039956 | 19.44° C | 31% | 1012.4 hPa | 0 mm | - | 0 W/m² | - |
| 1778039657 | 20° C | 30% | 1012.3 hPa | 0 mm | - | 0 W/m² | - |
| 1778039356 | 20° C | 30% | 1012.3 hPa | 0 mm | - | 0 W/m² | - |
* Rain latest hour (hover to see other rain measurements)
** Current wind speed in m/s (hover to see current wind gust speed)